Location: Hard
(49.9417°N, 12.0858°E)
Time: 07:46:02
(UTC+00:00)

Cosmos 1980 Rocket - Pass Details

Date: 07 June 2020
Orbit: 828 x 851 km, 71.0° (Epoch: 04 July)

Event Time Altitude Azimuth Distance (km) Brightness Sun altitude
Exits shadow 00:51:55 18° 225° (SW) 1,941 3.5 -13.9°
Maximum altitude 00:56:07 63° 303° (WNW) 935 2.5 -13.6°
Drops below altitude 10° 01:01:45 10° 25° (NNE) 2,474 6.1 -13.2°
Sets 01:04:15 0° 28° (NNE) 3,417 7.5 -13.0°
